Location: Monfort
(47.1967°N, 0.2115°W)
Time: 10:54:37
(UTC+00:00)

Atlas Centaur 2 - Pass Details

Date: 24 October 2020
Orbit: 459 x 1309 km, 30.4° (Epoch: 27 November)

Event Time Altitude Azimuth Distance (km) Brightness Sun altitude
Rises 19:20:47 0° 227° (SW) 4,282 6.4 -25.1°
Reaches altitude 10° 19:24:41 10° 212° (SSW) 3,313 5.5 -25.7°
Maximum altitude 19:30:24 20° 170° (S) 2,552 4.4 -26.7°
Enters shadow 19:30:50 20° 165° (SSE) 2,549 4.4 -26.8°
